TimePDT,TemperatureF,Dew PointF,Humidity,Sea Level PressureIn,VisibilityMPH,Wind Direction,Wind SpeedMPH,Gust SpeedMPH,PrecipitationIn,Events,Conditions,WindDirDegrees,DateUTC
12:01 AM,57.2,55.4,94,30.10,4.0,WSW,8.1,-,0.00,Rain,Light Rain,240,2012-10-14 07:01:00
12:35 AM,57.2,55.4,94,30.10,5.0,WSW,5.8,-,0.01,,Overcast,240,2012-10-14 07:35:00
12:53 AM,55.9,55.9,100,30.09,3.0,Calm,Calm,-,0.02,Rain,Light Rain,0,2012-10-14 07:53:00
1:15 AM,55.4,55.4,100,30.08,3.0,Calm,Calm,-,0.02,Rain,Light Rain,0,2012-10-14 08:15:00
1:53 AM,55.9,55.9,100,30.09,3.0,Calm,Calm,-,0.04,,Overcast,0,2012-10-14 08:53:00
2:25 AM,55.4,55.4,100,30.08,3.0,Calm,Calm,-,0.01,,Overcast,0,2012-10-14 09:25:00
2:49 AM,55.4,55.4,100,30.07,4.0,West,3.5,-,0.02,Rain,Light Rain,260,2012-10-14 09:49:00
2:53 AM,55.9,55.0,97,30.07,5.0,WSW,4.6,-,0.02,,Overcast,250,2012-10-14 09:53:00
3:14 AM,55.4,55.4,100,30.06,10.0,SW,3.5,-,N/A,,Overcast,230,2012-10-14 10:14:00
3:34 AM,55.4,55.4,100,30.05,10.0,SW,3.5,-,0.00,Rain,Light Rain,220,2012-10-14 10:34:00
3:53 AM,55.9,55.9,100,30.04,10.0,Calm,Calm,-,0.00,Rain,Light Rain,0,2012-10-14 10:53:00
4:05 AM,55.4,55.4,100,30.03,10.0,Calm,Calm,-,0.00,,Overcast,0,2012-10-14 11:05:00
4:45 AM,55.4,55.4,100,30.02,10.0,Calm,Calm,-,0.00,,Overcast,0,2012-10-14 11:45:00
4:53 AM,55.9,55.0,97,30.02,10.0,Calm,Calm,-,0.00,,Overcast,0,2012-10-14 11:53:00
5:20 AM,55.4,55.4,100,30.01,10.0,WSW,4.6,-,N/A,,Overcast,250,2012-10-14 12:20:00
5:53 AM,55.9,55.0,97,30.01,10.0,Calm,Calm,-,N/A,,Overcast,0,2012-10-14 12:53:00
6:53 AM,55.9,55.9,100,29.99,10.0,Calm,Calm,-,N/A,,Overcast,0,2012-10-14 13:53:00
7:53 AM,55.9,55.0,97,29.98,10.0,West,6.9,-,N/A,,Overcast,280,2012-10-14 14:53:00
8:53 AM,57.0,55.9,96,29.96,10.0,West,3.5,-,N/A,,Overcast,280,2012-10-14 15:53:00
9:53 AM,57.9,57.0,97,29.96,10.0,SW,6.9,-,N/A,,Overcast,230,2012-10-14 16:53:00
10:53 AM,59.0,57.9,96,29.96,10.0,SW,6.9,-,0.00,Rain,Light Rain,230,2012-10-14 17:53:00
11:53 AM,61.0,57.9,90,29.95,9.0,SW,15.0,-,0.03,Rain,Light Rain,220,2012-10-14 18:53:00
12:53 PM,60.8,57.2,88,29.94,3.0,SSW,12.7,-,N/A,Rain,Rain,210,2012-10-14 19:53:00
1:53 PM,59.0,57.0,93,29.94,3.0,South,10.4,17.3,0.18,Rain,Rain,190,2012-10-14 20:53:00
2:00 PM,59.0,57.2,94,29.92,4.0,South,13.8,23.0,0.01,Rain,Rain,190,2012-10-14 21:00:00
2:34 PM,59.0,57.2,94,29.92,4.0,South,8.1,17.3,0.07,Rain,Light Rain,190,2012-10-14 21:34:00
2:53 PM,59.0,57.0,93,29.93,3.0,SW,6.9,-,0.11,Rain,Light Rain,220,2012-10-14 21:53:00
3:11 PM,57.2,57.2,100,29.92,2.5,SSW,6.9,-,0.05,Rain,Rain,200,2012-10-14 22:11:00
3:27 PM,57.2,57.2,100,29.92,1.8,Variable,3.5,-,0.11,Rain,Rain,0,2012-10-14 22:27:00
3:53 PM,59.0,57.9,96,29.92,2.0,SSW,3.5,-,0.21,Rain,Rain,200,2012-10-14 22:53:00
4:11 PM,59.0,57.2,94,29.91,3.0,Calm,Calm,-,0.04,Rain,Light Rain,0,2012-10-14 23:11:00
4:49 PM,57.2,57.2,100,29.89,2.5,Variable,4.6,-,0.13,Rain,Rain,0,2012-10-14 23:49:00
4:53 PM,57.9,57.0,97,29.89,2.0,South,4.6,-,0.14,Rain,Rain,170,2012-10-14 23:53:00
5:11 PM,57.2,57.2,100,29.88,3.0,SSE,3.5,-,0.03,Rain,Light Rain,160,2012-10-15 00:11:00
5:15 PM,57.2,57.2,100,29.88,2.5,SE,3.5,-,0.04,Rain,Light Rain,130,2012-10-15 00:15:00
5:44 PM,57.2,57.2,100,29.87,2.5,Calm,Calm,-,0.12,Rain,Light Rain,0,2012-10-15 00:44:00
5:53 PM,57.9,57.9,100,29.88,3.0,Calm,Calm,-,0.15,Rain,Rain,0,2012-10-15 00:53:00
6:03 PM,57.2,57.2,100,29.87,2.5,Calm,Calm,-,0.04,Rain,Rain,0,2012-10-15 01:03:00
6:12 PM,57.2,57.2,100,29.87,1.8,Calm,Calm,-,0.08,Rain,Rain,0,2012-10-15 01:12:00
6:20 PM,57.2,57.2,100,29.87,2.5,South,6.9,-,0.11,Rain,Rain,190,2012-10-15 01:20:00
6:30 PM,57.2,57.2,100,29.87,2.5,South,8.1,-,0.15,Rain,Rain,190,2012-10-15 01:30:00
6:32 PM,57.2,57.2,100,29.87,2.5,South,8.1,-,0.15,Rain,Rain,190,2012-10-15 01:32:00
6:37 PM,57.2,57.2,100,29.87,2.5,SSW,6.9,-,0.17,Rain,Rain,200,2012-10-15 01:37:00
6:53 PM,57.0,57.0,100,29.87,3.0,SSW,3.5,-,0.25,Rain,Rain,200,2012-10-15 01:53:00
7:07 PM,57.2,57.2,100,29.87,1.8,SSW,3.5,-,0.01,Rain,Light Rain,210,2012-10-15 02:07:00
7:21 PM,57.2,57.2,100,29.86,2.0,South,4.6,-,0.06,Rain,Light Rain,180,2012-10-15 02:21:00
7:53 PM,57.9,57.0,97,29.86,3.0,SSW,6.9,-,0.08,Rain,Light Rain,200,2012-10-15 02:53:00
8:02 PM,57.2,57.2,100,29.86,2.5,SSW,8.1,-,0.00,Rain,Light Rain,200,2012-10-15 03:02:00
8:13 PM,57.2,57.2,100,29.86,3.0,SSW,6.9,-,0.01,Rain,Light Rain,210,2012-10-15 03:13:00
8:26 PM,57.2,57.2,100,29.86,3.0,SSW,5.8,-,0.02,Rain,Light Rain,200,2012-10-15 03:26:00
8:36 PM,57.2,57.2,100,29.86,3.0,SSW,9.2,-,0.02,,Overcast,210,2012-10-15 03:36:00
8:53 PM,57.9,55.9,93,29.86,4.0,SSW,12.7,18.4,0.02,,Overcast,210,2012-10-15 03:53:00
9:53 PM,57.0,55.9,96,29.87,10.0,South,11.5,17.3,0.01,,Overcast,190,2012-10-15 04:53:00
10:53 PM,57.0,55.9,96,29.88,2.5,SW,6.9,-,0.03,Rain,Light Rain,230,2012-10-15 05:53:00
11:04 PM,55.4,55.4,100,29.88,4.0,SW,5.8,-,0.00,,Overcast,220,2012-10-15 06:04:00
11:13 PM,55.4,55.4,100,29.88,8.0,SSW,5.8,-,0.00,Rain,Light Rain,210,2012-10-15 06:13:00
11:53 PM,55.9,55.9,100,29.88,3.0,SSW,6.9,-,0.01,Rain,Light Rain,210,2012-10-15 06:53:00